Grand Forks AFB, ND

6:25 PM CST on January 18, 2018 (GMT -0600)
Grand Forks Air Force Base

Weather History for KRDR - March, 2013

Change the Weather History Date:

Thursday, March 14, 2013

  Actual Average Record
Temperature  
Mean Temperature 17 °F -  
Max Temperature 30 °F 28 °F 67 °F (2015)
Min Temperature 5 °F 11 °F -5 °F (1997)
Degree Days  
Heating Degree Days 48    
Moisture  
Dew Point 12 °F    
Average Humidity 85    
Maximum Humidity 93    
Minimum Humidity 68    
Precipitation  
Precipitation 0.04 in - - ()
Sea Level Pressure  
Sea Level Pressure 30.09 in    
Wind  
Wind Speed 9 mph (SSE)    
Max Wind Speed 17 mph    
Max Gust Speed -    
Visibility 4 miles    
Events Fog , Snow    
Averages and records for this station are not official NWS values.
T = Trace of Precipitation, MM = Missing Value Source: NWS Daily Summary

Daily Weather History Graph

Daily Weather History Graph

Search for Another Location

Airport or City:

Trip Planner

Search our weather history database for the weather conditions in past years. The results will help you decide how hot, cold, wet, or windy it might be!

Date:

Astronomy

Mar. 14, 2013 Rise Set
Actual Time 7:44 AM CDT 7:34 PM CDT
Civil Twilight 7:13 AM CDT 8:04 PM CDT
Nautical Twilight 6:37 AM CDT 8:41 PM CDT
Astronomical Twilight 6:00 AM CDT 9:18 PM CDT
Moon 8:43 AM CDT (3/14) 11:10 PM CDT (3/14)
Length of Visible Light 12h 51m
Length of Day
11h 49m
Waxing Crescent, 9% of the Moon is Illuminated
Mar 14
Waxing Crescent
Mar 19
First Quarter
Mar 27
Full
Apr 2
Last Quarter
Apr 10
New

Hourly Weather History & Observations

Time (CDT) Temp. Windchill Dew Point Humidity Pressure Visibility Wind Dir Wind Speed Gust Speed Precip Events Conditions
12:09 AM 19.4 °F 6.0 °F 17.6 °F 93% 30.08 in 1.2 mi SSE 13.8 mph - N/A Snow Light Snow
12:10 AM 19.4 °F 6.0 °F 17.6 °F 93% 30.08 in 1.5 mi SSE 13.8 mph - N/A Snow Light Snow
12:24 AM 19.4 °F 5.5 °F 17.6 °F 93% 30.09 in 2.0 mi South 15.0 mph - N/A Snow Light Snow
12:25 AM 19.4 °F 5.5 °F 17.6 °F 93% 30.09 in 2.0 mi South 15.0 mph - N/A Snow Light Snow
12:41 AM 21.2 °F 7.8 °F 17.6 °F 86% 30.08 in 3.0 mi South 15.0 mph - N/A Snow Light Snow
12:42 AM 21.2 °F 8.3 °F 17.6 °F 86% 30.08 in 3.0 mi South 13.8 mph - N/A Snow Light Snow
12:54 AM 21.2 °F 8.3 °F 17.6 °F 86% 30.07 in 4.0 mi South 13.8 mph - N/A Snow Light Snow
12:55 AM 20.8 °F 7.3 °F 18.1 °F 89% 30.07 in 4.0 mi South 15.0 mph - 0.00 in Snow Light Snow
12:59 AM 21.2 °F 8.3 °F 17.6 °F 86% 30.07 in 5.0 mi South 13.8 mph - N/A Snow Light Snow
1:02 AM 21.2 °F 7.8 °F 17.6 °F 86% 30.06 in 6.0 mi SSE 15.0 mph - N/A   Overcast
1:05 AM 21.2 °F 7.8 °F 17.6 °F 86% 30.06 in 7.0 mi South 15.0 mph - N/A   Overcast
1:55 AM 22.3 °F 9.7 °F 18.9 °F 87% 30.06 in 10.0 mi South 13.8 mph - 0.00 in   Overcast
2:55 AM 19.9 °F 13.4 °F 17.1 °F 89% 30.07 in 10.0 mi SSE 4.6 mph - N/A   Scattered Clouds
3:19 AM 17.6 °F 12.3 °F 15.8 °F 93% 30.07 in 8.0 mi SSE 3.5 mph - N/A   Clear
3:27 AM 15.8 °F 10.2 °F 12.2 °F 86% 30.07 in 7.0 mi SE 3.5 mph - N/A   Clear
3:39 AM 14.0 °F 8.2 °F 12.2 °F 93% 30.06 in 0.8 mi ESE 3.5 mph - N/A   Clear
3:40 AM 14.0 °F 8.2 °F 12.2 °F 93% 30.06 in 0.5 mi ESE 3.5 mph - N/A Fog Light Freezing Fog
3:42 AM 15.8 °F 10.2 °F 12.2 °F 86% 30.07 in 0.5 mi ESE 3.5 mph - N/A Fog Light Freezing Fog
3:43 AM 15.8 °F 10.2 °F 14.0 °F 93% 30.07 in 0.2 mi ESE 3.5 mph - N/A Fog Light Freezing Fog
3:45 AM 15.8 °F 10.2 °F 12.2 °F 86% 30.06 in 0.2 mi ESE 3.5 mph - N/A Fog Light Freezing Fog
3:55 AM 14.7 °F 9.0 °F 11.8 °F 88% 30.07 in 0.2 mi ESE 3.5 mph - N/A Fog Light Freezing Fog
4:09 AM 14.0 °F - 10.4 °F 86% 30.07 in 0.2 mi Calm Calm - N/A Fog , Snow Light Freezing Fog
4:25 AM 12.2 °F 6.1 °F 8.6 °F 85% 30.07 in 0.2 mi East 3.5 mph - N/A Fog Light Freezing Fog
4:31 AM 8.6 °F - 5.0 °F 85% 30.07 in 0.5 mi Calm Calm - N/A Fog Light Freezing Fog
4:55 AM 6.4 °F - 3.0 °F 86% 30.08 in 0.5 mi Calm Calm - 0.00 in Fog Light Freezing Fog
5:00 AM 5.0 °F -2.1 °F 1.4 °F 85% 30.07 in 0.2 mi ESE 3.5 mph - N/A   Haze
5:02 AM 5.0 °F -2.1 °F 1.4 °F 85% 30.06 in 0.2 mi ESE 3.5 mph - N/A Fog , Snow Light Freezing Fog
5:18 AM 8.6 °F 2.0 °F 3.2 °F 79% 30.07 in 0.2 mi SE 3.5 mph - N/A Fog Light Freezing Fog
5:19 AM 6.8 °F -0.1 °F 3.2 °F 85% 30.07 in 0.2 mi SE 3.5 mph - N/A Fog Light Freezing Drizzle
5:55 AM 6.1 °F - 2.1 °F 84% 30.07 in 0.2 mi Calm Calm - 0.00 in Fog Light Freezing Drizzle
6:12 AM 5.0 °F - 1.4 °F 85% 30.08 in 0.2 mi Calm Calm - N/A Fog Light Freezing Fog
6:31 AM 5.0 °F -4.1 °F 1.4 °F 85% 30.07 in 0.5 mi SW 4.6 mph - N/A Fog Light Freezing Fog
6:55 AM 6.3 °F -0.7 °F 2.7 °F 85% 30.07 in 0.2 mi SW 3.5 mph - 0.00 in Fog Light Freezing Fog
6:57 AM 6.8 °F -2.0 °F 3.2 °F 85% 30.08 in 0.5 mi SW 4.6 mph - N/A Fog Light Freezing Fog
7:01 AM 6.8 °F -2.0 °F 3.2 °F 85% 30.08 in 0.2 mi SW 4.6 mph - N/A Fog Light Freezing Fog
7:54 AM 6.8 °F - 3.2 °F 85% 30.09 in 0.2 mi Calm Calm - N/A Fog Light Freezing Fog
7:55 AM 6.4 °F -0.5 °F 2.7 °F 84% 30.08 in 0.2 mi SW 3.5 mph - N/A Fog Light Freezing Fog
8:04 AM 5.0 °F - 1.4 °F 85% 30.10 in 0.2 mi Calm Calm - N/A Fog Light Freezing Fog
8:51 AM 5.0 °F -2.1 °F 1.4 °F 85% 30.11 in 0.2 mi WSW 3.5 mph - N/A Fog Light Freezing Fog
8:55 AM 6.8 °F - 3.2 °F 85% 30.11 in 0.5 mi Calm Calm - N/A Fog Light Freezing Fog
8:59 AM 6.8 °F -0.1 °F 3.2 °F 85% 30.10 in 2.0 mi SW 3.5 mph - N/A   Clear
9:01 AM 6.8 °F -0.1 °F 3.2 °F 85% 30.10 in 3.0 mi SW 3.5 mph - N/A   Clear
9:32 AM 12.2 °F - 8.6 °F 85% 30.10 in 10.0 mi Calm Calm - N/A Snow Light Snow
9:42 AM 12.2 °F - 8.6 °F 85% 30.10 in 10.0 mi Calm Calm - N/A   Clear
9:55 AM 13.8 °F 4.9 °F 10.8 °F 88% 30.10 in 10.0 mi SW 5.8 mph - 0.00 in   Clear
10:55 AM 20.7 °F 15.8 °F 18.7 °F 92% 30.08 in 10.0 mi South 3.5 mph - N/A   Clear
11:55 AM 25.5 °F 18.7 °F 21.2 °F 84% 30.11 in 10.0 mi WNW 5.8 mph - 0.02 in   Clear
12:55 PM 29.7 °F - 20.1 °F 68% 30.09 in 10.0 mi Calm Calm - 0.02 in   Clear
1:55 PM 28.6 °F 20.7 °F 21.0 °F 73% 30.11 in 10.0 mi North 8.1 mph - N/A   Clear
2:55 PM 29.5 °F 24.5 °F 20.7 °F 70% 30.10 in 10.0 mi North 4.6 mph - N/A   Clear
3:55 PM 27.9 °F 20.6 °F 20.5 °F 74% 30.10 in 10.0 mi NNE 6.9 mph - N/A   Clear
4:55 PM 27.5 °F 19.3 °F 20.3 °F 74% 30.10 in 10.0 mi North 8.1 mph - N/A   Clear
5:55 PM 27.7 °F 15.2 °F 20.1 °F 73% 30.12 in 10.0 mi North 17.3 mph - N/A   Clear
6:55 PM 23.4 °F 12.2 °F 16.5 °F 75% 30.14 in 10.0 mi North 11.5 mph - N/A   Clear
7:55 PM 21.2 °F 7.8 °F 14.7 °F 76% 30.16 in 10.0 mi North 15.0 mph - N/A   Clear
8:55 PM 19.2 °F 6.4 °F 14.5 °F 82% 30.15 in 10.0 mi North 12.7 mph - N/A   Clear
9:55 PM 19.9 °F 5.7 °F 15.4 °F 83% 30.17 in 10.0 mi North 16.1 mph - N/A   Clear
10:55 PM 19.9 °F 7.3 °F 15.6 °F 83% 30.17 in 10.0 mi North 12.7 mph - N/A   Mostly Cloudy
11:55 PM 20.5 °F 6.9 °F 15.4 °F 81% 30.16 in 10.0 mi North 15.0 mph - N/A   Clear